Vorticity
4 5 5 5 6 6 7 7 6 5 4 4 4 4 7 13 12 7 6 8 8 6 6 7 7 5 3 4 7 8 8 7 6 6 5 4 4 3 4 4 6 7
4 5 5 5 5 5 5 4 4 5 3 3 5 4 7 13 11 6 7 8 6 6 6 7 7 5 4 6 7 5 5 5 5 5 4 4 5 5 6 7 8 8
4 4 6 6 5 4 3 2 4 5 3 4 6 4 6 12 11 7 8 7 6 5 6 7 6 3 5 6 4 3 4 5 5 7 8 9 10 10 10 11 11 10
7 5 7 7 6 4 3 3 4 4 4 5 5 3 7 12 11 8 8 6 5 5 6 6 5 4 5 5 3 4 6 7 8 10 11 12 13 13 13 13 12 12
11 8 7 7 7 5 4 5 3 4 5 5 5 4 7 12 11 8 7 6 4 5 6 5 4 5 4 3 5 7 8 8 9 10 11 12 12 12 13 13 13 14
13 11 10 9 9 7 5 5 3 4 4 4 6 5 7 13 12 8 7 5 5 6 6 5 5 5 4 4 7 7 7 8 9 8 7 7 7 7 7 7 7 9
16 13 10 10 11 8 7 6 4 5 5 5 6 5 10 15 11 7 6 5 6 6 4 5 5 4 4 7 7 5 6 8 7 5 3 3 3 3 3 2 2 3
16 15 12 10 11 9 8 6 5 6 5 7 8 6 12 16 10 6 6 5 6 5 4 5 5 5 7 7 4 2 4 6 4 2 2 2 2 2 2 2 2 2
16 18 16 13 12 10 9 6 6 7 7 9 8 6 13 16 10 6 6 5 5 4 3 4 4 7 8 3 0 2 5 4 2 2 2 2 2 3 3 4 4 4
16 18 19 20 18 16 13 9 8 9 10 11 7 6 15 15 8 7 8 6 4 3 3 4 6 8 3 -1 1 4 4 3 3 3 3 3 4 4 4 4 5 7
13 14 18 24 25 24 20 14 12 11 11 10 6 8 16 13 6 8 10 6 4 4 4 5 7 5 -0 -0 3 3 2 3 4 4 5 8 10 10 9 8 9 13
11 11 15 22 28 29 23 16 12 10 9 7 5 9 16 11 7 9 7 4 4 4 5 6 6 3 1 2 3 1 1 3 3 4 7 12 14 14 12 10 11 14
12 8 9 16 26 28 18 10 8 6 7 6 4 10 15 9 7 9 5 3 4 4 4 5 5 3 3 3 1 1 2 3 5 5 7 10 11 10 8 6 7 9
14 6 4 10 21 22 13 6 6 4 5 5 4 10 14 9 7 7 4 3 5 5 4 5 4 3 3 1 -0 1 3 4 5 5 5 8 8 6 5 3 3 5
17 8 3 3 10 16 14 10 9 8 6 4 5 10 11 8 7 6 4 5 6 4 4 4 3 2 2 1 1 1 2 4 6 6 7 9 11 9 5 3 2 6
17 14 8 2 2 7 13 15 14 12 9 5 5 9 10 7 6 6 6 7 6 5 6 4 2 2 2 2 1 0 2 6 8 9 9 9 11 10 7 7 4 7
10 14 15 11 6 3 5 12 16 16 14 9 6 9 10 7 5 6 7 7 7 5 4 3 2 3 2 1 0 0 4 8 8 7 6 6 7 6 5 10 8 6
1 4 10 15 17 13 8 8 12 17 16 11 8 9 9 7 6 7 7 7 6 4 2 3 2 1 1 1 2 3 7 7 4 3 3 3 4 4 4 9 9 5
2 1 1 6 13 17 17 12 9 14 18 15 11 9 8 6 6 7 8 7 5 3 2 2 1 0 2 3 5 6 6 3 0 1 2 3 4 6 10 15 15 10
2 2 0 1 5 11 17 19 14 12 15 16 11 7 8 9 7 8 8 6 4 2 1 0 0 2 4 4 3 4 3 2 1 1 1 2 5 8 12 15 15 11
2 1 1 0 1 3 9 19 22 15 11 13 11 10 11 9 6 7 7 3 2 1 0 1 3 4 4 3 3 2 1 2 2 1 2 4 7 10 9 8 7 6
7 3 3 2 2 2 2 11 22 21 14 11 11 11 11 8 6 7 5 3 1 1 2 4 4 4 4 3 3 2 1 2 2 2 5 7 9 10 8 7 8 6
14 8 4 2 2 2 0 2 14 23 19 11 11 14 14 12 11 9 4 1 -1 -1 3 3 1 2 3 2 3 2 1 2 2 3 7 9 9 8 7 8 8 7
21 11 4 5 3 3 5 1 6 18 20 13 13 17 17 15 12 7 1 -1 -0 1 3 3 1 2 2 1 1 1 1 2 1 3 7 8 7 6 5 5 5 5
24 9 4 7 3 1 4 1 2 12 17 15 16 19 18 13 8 4 1 0 2 4 3 1 1 1 1 1 1 1 1 1 1 3 6 7 7 7 4 4 5 7
18 11 4 5 5 4 4 1 2 8 12 15 18 19 15 9 7 7 5 2 3 4 3 1 1 0 -0 1 1 1 1 1 1 2 4 5 8 8 5 4 8 10
Height
5907 5907 5908 5909 5909 5910 5910 5910 5910 5910 5910 5910 5911 5912 5913 5913 5913 5913 5912 5912 5912 5912 5911 5912 5912 5911 5911 5911 5910 5910 5909 5908 5908 5907 5907 5906 5905 5904 5903 5902 5901 5900
5905 5905 5906 5906 5907 5908 5908 5908 5908 5908 5908 5908 5910 5911 5911 5912 5912 5912 5911 5911 5911 5910 5910 5911 5911 5910 5910 5909 5909 5908 5908 5907 5907 5906 5906 5905 5904 5903 5902 5900 5899 5898
5903 5903 5904 5905 5905 5906 5906 5906 5906 5906 5906 5906 5908 5909 5910 5911 5911 5910 5910 5909 5909 5909 5909 5910 5909 5909 5909 5908 5908 5907 5907 5907 5906 5906 5905 5904 5903 5901 5900 5899 5898 5896
5900 5901 5902 5902 5903 5903 5904 5904 5904 5904 5904 5905 5906 5907 5908 5909 5909 5909 5908 5908 5908 5908 5908 5908 5908 5908 5908 5907 5907 5907 5906 5906 5905 5904 5904 5903 5901 5900 5899 5898 5897 5895
5897 5898 5899 5900 5900 5901 5902 5902 5902 5902 5902 5903 5904 5906 5907 5907 5908 5907 5907 5906 5906 5907 5907 5907 5907 5907 5907 5907 5907 5906 5906 5905 5904 5903 5902 5901 5900 5899 5898 5897 5895 5894
5894 5895 5896 5897 5898 5899 5900 5901 5900 5900 5901 5901 5902 5904 5905 5905 5905 5905 5905 5905 5905 5905 5905 5906 5906 5906 5906 5906 5906 5906 5905 5904 5903 5902 5901 5900 5899 5898 5897 5895 5894 5892
5891 5892 5893 5894 5895 5896 5898 5898 5898 5898 5899 5899 5900 5902 5903 5903 5903 5903 5903 5903 5903 5904 5904 5905 5905 5905 5905 5905 5905 5905 5904 5903 5902 5901 5899 5898 5897 5895 5894 5893 5891 5889
5887 5889 5890 5891 5892 5894 5895 5895 5896 5897 5897 5897 5898 5900 5900 5901 5901 5901 5901 5901 5902 5902 5903 5903 5904 5904 5904 5904 5904 5904 5903 5902 5901 5899 5898 5896 5894 5893 5891 5890 5888 5886
5885 5886 5887 5888 5889 5891 5892 5893 5893 5894 5894 5895 5896 5897 5898 5899 5899 5899 5900 5900 5900 5900 5901 5902 5903 5903 5903 5903 5903 5902 5901 5900 5899 5897 5895 5894 5892 5890 5889 5887 5886 5884
5883 5883 5884 5885 5886 5888 5889 5890 5890 5891 5892 5893 5894 5895 5896 5896 5897 5898 5898 5898 5898 5899 5900 5900 5901 5901 5901 5901 5901 5900 5899 5898 5896 5895 5893 5892 5890 5888 5887 5885 5883 5881
5880 5881 5882 5882 5883 5885 5886 5886 5887 5888 5890 5891 5892 5893 5894 5894 5895 5896 5896 5897 5897 5897 5898 5898 5899 5899 5899 5899 5899 5898 5897 5896 5895 5893 5892 5890 5888 5886 5885 5883 5881 5879
5878 5879 5880 5880 5881 5882 5883 5883 5884 5886 5887 5888 5890 5891 5892 5892 5893 5894 5894 5895 5895 5895 5896 5896 5897 5897 5897 5897 5896 5896 5895 5894 5893 5892 5890 5888 5886 5884 5883 5881 5879 5877
5877 5878 5878 5879 5879 5880 5880 5881 5882 5883 5885 5886 5887 5888 5890 5890 5891 5892 5892 5892 5892 5893 5894 5894 5895 5895 5895 5895 5894 5894 5894 5893 5891 5889 5888 5886 5884 5882 5881 5879 5877 5875
5876 5876 5877 5877 5878 5878 5879 5879 5880 5881 5882 5883 5884 5886 5888 5889 5889 5890 5889 5890 5890 5891 5892 5892 5893 5893 5893 5893 5893 5893 5892 5891 5889 5887 5886 5884 5882 5880 5878 5876 5874 5872
5874 5875 5876 5876 5876 5877 5878 5878 5879 5879 5880 5880 5881 5883 5886 5887 5887 5887 5887 5888 5889 5889 5890 5891 5891 5891 5891 5891 5891 5891 5890 5888 5887 5886 5884 5882 5879 5877 5875 5873 5871 5870
5873 5873 5874 5874 5875 5876 5876 5877 5877 5877 5877 5877 5879 5881 5883 5884 5884 5885 5886 5887 5887 5888 5888 5889 5889 5889 5889 5889 5889 5888 5887 5886 5885 5884 5882 5879 5877 5875 5873 5871 5869 5868
5871 5872 5872 5872 5873 5874 5874 5875 5875 5875 5875 5875 5876 5878 5880 5881 5882 5884 5885 5885 5885 5886 5886 5887 5887 5886 5886 5886 5886 5886 5885 5884 5883 5881 5879 5877 5874 5873 5871 5869 5867 5865
5870 5870 5870 5871 5871 5872 5872 5872 5872 5872 5872 5873 5873 5875 5878 5879 5881 5882 5883 5882 5883 5883 5884 5884 5884 5883 5883 5883 5883 5883 5882 5881 5880 5878 5876 5874 5872 5870 5868 5866 5864 5861
5868 5868 5868 5869 5869 5870 5870 5869 5869 5870 5870 5871 5871 5873 5875 5877 5879 5879 5880 5880 5880 5881 5881 5881 5881 5881 5881 5881 5880 5880 5879 5878 5877 5875 5873 5871 5869 5867 5865 5862 5860 5858
5865 5866 5866 5867 5867 5867 5866 5866 5867 5867 5868 5868 5869 5871 5872 5874 5876 5877 5877 5877 5878 5878 5878 5878 5878 5878 5878 5878 5877 5877 5876 5874 5873 5871 5870 5868 5866 5864 5862 5860 5858 5856
5863 5863 5864 5864 5864 5864 5864 5864 5865 5865 5866 5866 5867 5869 5870 5872 5873 5874 5874 5874 5875 5875 5875 5875 5875 5875 5875 5874 5874 5873 5872 5871 5869 5868 5867 5865 5863 5861 5859 5857 5855 5854
5860 5860 5861 5861 5861 5861 5861 5862 5862 5863 5863 5864 5865 5866 5867 5868 5869 5870 5871 5871 5871 5872 5872 5872 5872 5872 5871 5871 5870 5869 5868 5867 5866 5865 5863 5861 5859 5857 5855 5854 5852 5850
5856 5857 5857 5857 5857 5857 5858 5859 5859 5860 5860 5861 5862 5863 5864 5864 5865 5866 5867 5868 5868 5868 5869 5869 5869 5868 5868 5867 5867 5866 5865 5864 5863 5861 5859 5858 5856 5854 5852 5850 5848 5846
5851 5852 5852 5853 5854 5854 5855 5856 5856 5857 5857 5858 5859 5860 5860 5861 5862 5862 5863 5863 5864 5865 5866 5866 5866 5865 5864 5864 5863 5862 5861 5860 5859 5858 5856 5854 5852 5850 5848 5846 5844 5842
5846 5847 5847 5848 5850 5851 5852 5852 5853 5853 5854 5854 5855 5856 5857 5857 5857 5858 5859 5860 5861 5862 5862 5862 5862 5861 5861 5860 5859 5858 5857 5857 5855 5854 5852 5850 5848 5847 5845 5842 5840 5838
5842 5843 5843 5843 5845 5847 5848 5848 5849 5849 5850 5850 5851 5852 5853 5853 5853 5854 5855 5856 5857 5858 5858 5858 5858 5857 5857 5856 5855 5855 5854 5853 5852 5850 5849 5847 5845 5843 5840 5838 5836 5834